Location: Burleson Alternative School
(32.5290°N, 97.3406°W)
Time: 03:55:16
(UTC+00:00)

Courier 1B Rocket - Pass Details

Date: 17 November 2024
Orbit: 920 x 1201 km, 28.2° (Epoch: 03 December)

Event Time Altitude Azimuth Distance (km) Brightness Sun altitude
Rises 00:28:30 0° 271° (W) 3,715 9.7 -13.0°
Reaches altitude 10° 00:31:21 10° 265° (W) 2,724 8.8 -13.6°
Maximum altitude 00:37:30 44° 195° (SSW) 1,270 5.8 -14.8°
Enters shadow 00:43:22 10° 125° (SE) 2,596 6.8 -16.0°
